CW9192 Weather Reports


time (UTC)temp
F
wind
direction
speed
knots
gust
knots
rain 1hr
in
rain 24hr
in
rain mn
in
humidity
%
barometer
mb
20260510051559 48 151 2.6 7.0 0.00 0.00 0.00 85 1008.6
20260510051100 48 143 0.9 4.3 0.00 0.00 0.00 85 1008.6
20260510050559 48 129 0.9 5.2 0.00 0.00 0.00 85 1008.6
20260510045601 48 200 1.7 6.1 0.00 0.00 0.00 84 1008.5
20260510045059 49 160 2.6 6.1 0.00 0.00 0.00 84 1008.4
20260510044602 49 172 1.7 7.0 0.00 0.00 0.00 83 1008.3
20260510044059 49 121 2.6 7.8 0.00 0.00 0.00 83 1008.3
20260510043559 49 214 2.6 7.8 0.00 0.00 0.00 83 1008.4
20260510043056 49 94 2.6 7.8 0.00 0.00 0.00 83 1008.3
20260510042559 49 284 1.7 12.2 0.00 0.00 0.00 83 1008.4
20260510042058 50 256 4.3 17.4 0.00 0.00 0.00 83 1008.5
20260510041555 50 180 7.0 17.4 0.00 0.00 0.00 83 1008.5
20260510041058 51 213 4.3 15.6 0.00 0.00 0.00 83 1008.4
20260510040559 51 101 2.6 10.4 0.00 0.00 0.00 83 1008.2
20260510040057 51 211 3.5 9.6 0.00 0.00 0.00 82 1008.1
20260510035558 51 149 0.9 11.3 0.00 0.00 0.00 82 1007.7
20260510035058 51 211 4.3 11.3 0.00 0.00 0.00 82 1007.6
20260510034617 51 123 2.6 7.0 0.00 0.00 0.00 82 1007.5
20260510034058 51 95 2.6 9.6 0.00 0.00 0.00 82 1007.6
20260510033558 51 188 1.7 9.6 0.00 0.00 0.00 82 1007.7
20260510033100 51 137 2.6 9.6 0.00 0.00 0.00 82 1007.8
20260510032558 50 207 0.9 8.7 0.00 0.00 0.00 83 1007.7
20260510032058 50 93 2.6 8.7 0.00 0.00 0.00 83 1007.7
20260510031600 50 119 1.7 8.7 0.00 0.00 0.00 83 1007.8
20260510031058 50 132 0.9 8.7 0.00 0.00 0.00 83 1007.8
20260510030559 50 119 3.5 8.7 0.00 0.00 0.00 83 1007.4
20260510030106 50 215 1.7 8.7 0.00 0.00 0.00 83 1007.2
20260510025558 50 150 3.5 8.7 0.00 0.00 0.00 83 1007.2
20260510025058 50 218 3.5 8.7 0.00 0.00 0.00 83 1007.3
20260510024559 50 130 2.6 7.8 0.00 0.00 0.00 83 1007.5
20260510024100 50 172 0.9 6.1 0.00 0.00 0.00 83 1007.5
20260510023559 50 171 1.7 6.1 0.00 0.00 0.00 83 1007.5
20260510023058 50 204 1.7 7.0 0.00 0.00 0.00 83 1007.4
20260510022603 50 153 1.7 7.0 0.00 0.00 0.00 83 1007.3
20260510022100 50 88 3.5 7.0 0.00 0.00 0.00 83 1007.4
20260510021606 50 102 2.6 7.8 0.00 0.00 0.00 83 1007.5
20260510021058 50 130 0.9 7.8 0.00 0.00 0.00 84 1007.4
20260510020558 50 199 1.7 7.0 0.00 0.00 0.00 83 1007.5
20260510020056 50 119 0.9 8.7 0.00 0.00 0.00 83 1007.7
20260510015559 50 138 1.7 8.7 0.00 0.00 0.00 83 1007.5
20260510015058 50 155 1.7 7.0 0.00 0.00 0.00 83 1007.6
20260510014607 50 103 1.7 5.2 0.00 0.00 0.00 84 1007.7
20260510014058 50 142 0.9 7.0 0.00 0.00 0.00 84 1007.7
20260510013600 50 0 2.6 7.0 0.00 0.00 0.00 84 1007.6
20260510013123 49 132 1.7 7.0 0.00 0.00 0.00 84 1007.7
20260510012558 49 145 2.6 5.2 0.00 0.00 0.00 84 1007.5
20260510012058 49 171 0.9 7.8 0.00 0.00 0.00 84 1007.7
20260510011559 49 211 0.9 7.8 0.00 0.00 0.00 85 1007.7
20260510011058 49 81 1.7 6.1 0.00 0.00 0.00 85 1007.6
20260510010558 49 112 0.9 3.5 0.00 0.00 0.00 85 1007.4
20260510010107 49 101 0.9 7.0 0.00 0.00 0.00 85 1007.4
20260510005558 49 158 1.7 7.0 0.00 0.00 0.00 85 1007.3
20260510005100 49 180 0.0 7.8 0.00 0.00 0.00 85 1007.2
20260510004557 49 171 1.7 7.8 0.00 0.00 0.00 85 1007.1
20260510004058 48 124 0.9 5.2 0.00 0.00 0.00 85 1007.2
20260510003559 48 123 0.9 6.1 0.00 0.00 0.00 86 1007.1
20260510003107 48 205 1.7 6.1 0.00 0.00 0.00 86 1007.2
20260510002601 47 129 0.0 2.6 0.00 0.00 0.00 85 1007.1
20260510002100 48 0 0.0 3.5 0.00 0.00 0.00 85 1007.1
20260510001558 48 16 0.0 3.5 0.00 0.00 0.00 85 1007.2
20260510001058 48 0 0.9 3.5 0.00 0.00 0.00 85 1007.2
20260510000559 48 134 0.0 3.5 0.00 0.00 0.00 84 1007.0
20260510000126 49 0 0.9 3.5 0.00 0.00 0.00 84 1007.2
20260509235558 49 136 1.7 6.1 0.00 0.00 0.00 83 1007.1
20260509235058 49 0 1.7 6.1 0.00 0.00 0.00 84 1007.2
20260509234556 49 153 1.7 6.1 0.00 0.00 0.00 83 1007.2
20260509234059 49 148 1.7 6.1 0.00 0.00 0.00 83 1007.2
20260509233558 49 126 1.7 6.1 0.00 0.00 0.00 83 1007.4
20260509233056 49 107 0.9 3.5 0.00 0.00 0.00 84 1007.6
20260509232559 49 0 0.9 4.3 0.00 0.00 0.00 84 1007.5
20260509232059 49 148 0.9 6.1 0.00 0.00 0.00 83 1007.4
20260509231616 49 0 1.7 6.1 0.00 0.00 0.00 83 1007.4
20260509231059 49 147 0.9 5.2 0.00 0.00 0.00 84 1007.2
20260509230558 49 186 1.7 7.0 0.00 0.00 0.00 84 1007.2
20260509230108 49 101 1.7 7.0 0.00 0.00 0.00 84 1007.2
20260509225600 49 111 2.6 6.1 0.00 0.00 0.00 84 1007.1
20260509225058 49 142 1.7 7.0 0.00 0.00 0.00 84 1007.3
20260509224600 49 134 3.5 7.0 0.00 0.00 0.00 84 1007.2
20260509224058 49 89 1.7 7.0 0.00 0.00 0.00 84 1007.1
20260509223559 49 149 1.7 7.0 0.00 0.00 0.00 84 1007.2
20260509223111 49 148 2.6 7.0 0.00 0.00 0.00 84 1007.2
20260509222557 49 132 1.7 7.8 0.00 0.00 0.00 85 1007.2
20260509222058 49 166 1.7 7.8 0.00 0.00 0.00 84 1007.3
20260509221619 49 197 1.7 7.0 0.00 0.00 0.00 84 1007.3
20260509221059 49 215 0.9 7.0 0.00 0.00 0.00 85 1007.3
20260509220558 48 47 2.6 7.0 0.00 0.00 0.00 84 1007.2
20260509220100 48 92 0.9 7.8 0.00 0.00 0.00 85 1007.2
20260509215558 48 140 1.7 7.8 0.00 0.00 0.00 85 1007.2
20260509215103 48 157 3.5 7.8 0.00 0.00 0.00 85 1007.1
20260509214603 48 111 2.6 7.0 0.00 0.00 0.00 85 1007.2
20260509214058 48 128 2.6 5.2 0.00 0.00 0.00 85 1007.3
20260509213558 48 145 1.7 7.0 0.00 0.00 0.00 86 1007.5
20260509213100 48 122 1.7 7.0 0.00 0.00 0.00 86 1007.6
20260509212559 48 105 1.7 5.2 0.00 0.00 0.00 86 1007.5
20260509212058 48 121 1.7 6.1 0.00 0.00 0.00 86 1007.6
20260509211604 48 92 1.7 6.1 0.00 0.00 0.00 86 1007.7
20260509211058 47 113 1.7 5.2 0.00 0.00 0.00 86 1007.9
20260509210558 47 0 1.7 5.2 0.00 0.00 0.00 86 1007.8
20260509210100 47 101 2.6 5.2 0.00 0.00 0.00 85 1007.7
20260509205558 47 94 1.7 5.2 0.00 0.00 0.00 85 1007.7
20260509205058 47 98 1.7 5.2 0.00 0.00 0.00 85 1007.7
20260509204603 48 101 1.7 4.3 0.00 0.00 0.00 84 1007.7
20260509204058 48 0 0.9 6.1 0.00 0.00 0.00 84 1007.8
20260509203601 48 200 1.7 7.0 0.00 0.00 0.00 83 1007.8
20260509203055 48 133 1.7 7.0 0.00 0.00 0.00 83 1007.8
20260509202558 48 109 3.5 8.7 0.00 0.00 0.00 82 1007.9
20260509202101 48 87 3.5 8.7 0.00 0.00 0.00 82 1007.9
20260509201556 48 184 1.7 6.1 0.00 0.00 0.00 81 1008.0
20260509201102 48 134 0.9 6.1 0.00 0.00 0.00 81 1008.0
20260509200559 48 117 2.6 7.0 0.00 0.00 0.00 81 1008.1
20260509200110 48 143 2.6 8.7 0.00 0.00 0.00 81 1008.1
20260509195600 48 138 2.6 8.7 0.00 0.00 0.00 80 1008.0
20260509195101 48 111 2.6 7.8 0.00 0.00 0.00 80 1008.1
20260509194558 48 134 0.9 6.1 0.00 0.00 0.00 79 1008.2
20260509194116 48 92 2.6 7.0 0.00 0.00 0.00 79 1008.2
20260509193558 48 161 2.6 7.0 0.00 0.00 0.00 79 1008.2
20260509193105 48 90 2.6 7.0 0.00 0.00 0.00 79 1008.3
20260509192557 48 104 0.9 7.0 0.00 0.00 0.00 80 1008.3
20260509192100 48 96 1.7 7.0 0.00 0.00 0.00 80 1008.3
20260509191604 48 111 2.6 7.0 0.00 0.00 0.00 79 1008.4
20260509191058 48 118 2.6 7.8 0.00 0.00 0.00 80 1008.4
20260509190558 47 176 4.3 7.8 0.00 0.00 0.00 80 1008.4
20260509190059 47 114 2.6 7.0 0.00 0.00 0.00 80 1008.5
20260509185558 47 164 3.5 8.7 0.00 0.00 0.00 80 1008.5
20260509185058 47 101 3.5 8.7 0.00 0.00 0.00 80 1008.4
20260509184558 47 103 2.6 8.7 0.00 0.00 0.00 80 1008.5
20260509184058 47 145 5.2 9.6 0.00 0.00 0.00 78 1008.6
20260509183558 48 103 3.5 9.6 0.00 0.00 0.00 76 1008.6
20260509183105 48 97 5.2 9.6 0.00 0.00 0.00 75 1008.6
20260509182557 49 118 2.6 7.0 0.00 0.00 0.00 75 1008.6
20260509182057 49 148 1.7 7.0 0.00 0.00 0.00 74 1008.7
20260509181555 49 107 2.6 10.4 0.00 0.00 0.00 74 1008.7
20260509181058 49 167 3.5 10.4 0.00 0.00 0.00 73 1008.7
20260509180557 49 198 0.9 5.2 0.00 0.00 0.00 73 1008.6
20260509180056 49 240 0.0 4.3 0.00 0.00 0.00 72 1008.6
20260509175558 49 117 0.9 7.0 0.00 0.00 0.00 72 1008.7
20260509175058 49 169 2.6 7.0 0.00 0.00 0.00 72 1008.7
20260509174600 49 119 2.6 7.0 0.00 0.00 0.00 72 1008.8
20260509174057 49 115 1.7 5.2 0.00 0.00 0.00 72 1008.9
20260509173557 49 90 0.9 8.7 0.00 0.00 0.00 72 1009.0
20260509173107 49 171 2.6 8.7 0.00 0.00 0.00 71 1009.0
20260509172558 49 113 3.5 9.6 0.00 0.00 0.00 71 1008.9
20260509172058 49 165 2.6 9.6 0.00 0.00 0.00 71 1009.0
20260509171557 49 161 4.3 9.6 0.00 0.00 0.00 71 1008.9
20260509171057 49 131 4.3 8.7 0.00 0.00 0.00 70 1008.9
20260509170557 50 150 3.5 8.7 0.00 0.00 0.00 69 1009.1
20260509170100 50 66 2.6 9.6 0.00 0.00 0.00 69 1009.2
20260509165558 50 105 4.3 9.6 0.00 0.00 0.00 68 1009.2
20260509165057 51 120 1.7 6.1 0.00 0.00 0.00 66 1009.2
20260509164556 52 186 1.7 10.4 0.00 0.00 0.00 66 1009.2
20260509164057 51 189 2.6 10.4 0.00 0.00 0.00 66 1009.2
20260509163557 52 114 3.5 10.4 0.00 0.00 0.00 65 1009.2
20260509163101 52 98 3.5 8.7 0.00 0.00 0.00 67 1009.3
20260509162557 51 92 2.6 8.7 0.00 0.00 0.00 66 1009.3
20260509162058 51 242 3.5 7.8 0.00 0.00 0.00 67 1009.4
20260509161603 51 167 3.5 7.8 0.00 0.00 0.00 68 1009.5
20260509161058 50 107 0.9 7.8 0.00 0.00 0.00 70 1009.6
20260509160558 50 153 3.5 7.8 0.00 0.00 0.00 69 1009.7
20260509160056 50 155 0.9 9.6 0.00 0.00 0.00 68 1009.8
20260509155557 49 123 3.5 9.6 0.00 0.00 0.00 69 1009.8
20260509155057 50 112 2.6 7.8 0.00 0.00 0.00 68 1009.8
20260509154556 50 185 1.7 7.8 0.00 0.00 0.00 68 1009.8
20260509154058 50 94 4.3 8.7 0.00 0.00 0.00 67 1009.8
20260509153557 50 207 1.7 8.7 0.00 0.00 0.00 68 1010.0
20260509153058 50 118 3.5 8.7 0.00 0.00 0.00 68 1009.9
20260509152557 49 156 3.5 8.7 0.00 0.00 0.00 69 1010.0
20260509152058 48 138 3.5 7.8 0.00 0.00 0.00 69 1010.1
20260509151559 48 140 0.0 5.2 0.00 0.00 0.00 71 1010.0
20260509151057 48 139 1.7 7.0 0.00 0.00 0.00 71 1010.2
20260509150558 48 173 1.7 7.0 0.00 0.00 0.00 71 1010.1
20260509145557 48 90 1.7 13.0 0.00 0.00 0.00 69 1010.1
20260509145058 48 82 2.6 13.0 0.00 0.00 0.00 68 1010.0
20260509144558 48 98 4.3 11.3 0.00 0.00 0.00 67 1010.0
20260509144057 49 126 3.5 13.9 0.00 0.00 0.00 66 1010.0
20260509143557 49 60 2.6 13.9 0.00 0.00 0.00 67 1010.1
20260509143102 49 78 5.2 12.2 0.00 0.00 0.00 66 1010.0
20260509142557 48 113 7.8 12.2 0.00 0.00 0.00 65 1010.1
20260509142057 49 107 3.5 9.6 0.00 0.00 0.00 64 1010.1
20260509141600 49 103 3.5 9.6 0.00 0.00 0.00 64 1010.2
20260509141101 49 128 3.5 11.3 0.00 0.00 0.00 64 1010.2
20260509140600 49 150 3.5 11.3 0.00 0.00 0.00 63 1010.2
20260509140106 49 96 2.6 8.7 0.00 0.00 0.00 61 1010.2
20260509135558 49 192 1.7 11.3 0.00 0.00 0.00 62 1010.3
20260509135058 49 115 4.3 11.3 0.00 0.00 0.00 61 1010.3
20260509134558 49 117 7.0 11.3 0.00 0.00 0.00 60 1010.3
20260509134058 48 98 3.5 12.2 0.00 0.00 0.00 59 1010.4
20260509133559 48 103 7.0 12.2 0.00 0.00 0.00 59 1010.5
20260509133057 48 154 4.3 12.2 0.00 0.00 0.00 56 1010.4
20260509132613 49 111 2.6 7.8 0.00 0.00 0.00 55 1010.4
20260509132058 49 141 2.6 8.7 0.00 0.00 0.00 54 1010.3
20260509131558 48 129 1.7 8.7 0.00 0.00 0.00 54 1010.3
20260509131057 48 118 4.3 10.4 0.00 0.00 0.00 52 1010.2
20260509130557 48 136 3.5 10.4 0.00 0.00 0.00 52 1010.3
20260509130057 48 99 6.1 9.6 0.00 0.00 0.00 51 1010.3
20260509125557 48 109 1.7 9.6 0.00 0.00 0.00 52 1010.4
20260509125058 47 85 5.2 10.4 0.00 0.00 0.00 52 1010.5
20260509124556 47 107 4.3 10.4 0.00 0.00 0.00 53 1010.6
20260509124057 47 144 1.7 6.1 0.00 0.00 0.00 54 1010.7
20260509123600 47 113 1.7 9.6 0.00 0.00 0.00 55 1010.7
20260509123118 46 103 2.6 9.6 0.00 0.00 0.00 55 1010.6
20260509122557 46 140 3.5 9.6 0.00 0.00 0.00 54 1010.6
20260509122056 45 119 2.6 10.4 0.00 0.00 0.00 55 1010.8
20260509121600 45 74 4.3 10.4 0.00 0.00 0.00 58 1010.8
20260509121057 44 129 2.6 8.7 0.00 0.00 0.00 60 1010.9
20260509120558 43 74 0.9 5.2 0.00 0.00 0.00 65 1011.0
20260509120059 42 101 0.0 5.2 0.00 0.00 0.00 67 1011.0
20260509115557 41 97 1.7 4.3 0.00 0.00 0.00 71 1011.0
20260509115057 39 103 0.9 3.5 0.00 0.00 0.00 78 1010.8
20260509114557 38 5 0.0 3.5 0.00 0.00 0.00 79 1010.8
20260509114057 37 0 0.0 0.0 0.00 0.00 0.00 81 1010.9
20260509113559 36 0 0.0 0.0 0.00 0.00 0.00 82 1011.0
20260509113058 35 0 0.0 0.0 0.00 0.00 0.00 83 1010.9
20260509112557 35 0 0.0 0.0 0.00 0.00 0.00 84 1011.0
20260509112057 35 0 0.0 0.0 0.00 0.00 0.00 85 1011.1
20260509111555 34 0 0.0 0.9 0.00 0.00 0.00 86 1011.0
20260509111057 33 0 0.0 0.9 0.00 0.00 0.00 86 1011.0
20260509110556 32 0 0.0 0.9 0.00 0.00 0.00 87 1011.1
20260509110057 32 0 0.0 0.9 0.00 0.00 0.00 88 1011.0
20260509105553 31 0 0.0 0.9 0.00 0.00 0.00 88 1011.0
20260509105055 31 0 0.0 0.0 0.00 0.00 0.00 88 1011.1
20260509104557 31 0 0.0 0.0 0.00 0.00 0.00 88 1011.0
20260509104054 30 0 0.0 0.9 0.00 0.00 0.00 88 1010.9
20260509103558 30 0 0.0 1.7 0.00 0.00 0.00 88 1010.9
20260509103103 30 0 0.0 1.7 0.00 0.00 0.00 88 1010.9
20260509102554 29 0 0.0 1.7 0.00 0.00 0.00 88 1010.9
20260509102120 29 0 0.0 0.9 0.00 0.00 0.00 88 1010.8
20260509101603 29 0 0.0 0.9 0.00 0.00 0.00 88 1010.8
20260509101059 29 0 0.0 0.9 0.00 0.00 0.00 88 1010.8
20260509100559 28 0 0.0 0.9 0.00 0.00 0.00 88 1010.8
20260509100059 29 0 0.0 1.7 0.00 0.00 0.00 88 1010.8
20260509095559 29 0 0.0 1.7 0.00 0.00 0.00 88 1010.9
20260509095059 28 0 0.0 0.9 0.00 0.00 0.00 88 1010.9
20260509094558 28 0 0.0 0.0 0.00 0.00 0.00 88 1010.9
20260509094058 28 0 0.0 0.0 0.00 0.00 0.00 88 1010.9
20260509093558 28 0 0.0 1.7 0.00 0.00 0.00 88 1011.0
20260509093057 28 0 0.0 2.6 0.00 0.00 0.00 88 1011.0
20260509092559 28 127 0.9 2.6 0.00 0.00 0.00 88 1011.0
20260509092103 29 127 0.0 2.6 0.00 0.00 0.00 88 1011.1
20260509091557 29 128 0.0 2.6 0.00 0.00 0.00 88 1011.1
20260509091059 29 127 0.0 0.0 0.00 0.00 0.00 88 1011.1
20260509090602 29 0 0.0 0.0 0.00 0.00 0.00 88 1011.2
20260509090101 28 0 0.0 0.0 0.00 0.00 0.00 88 1011.1
20260509085559 29 0 0.0 0.0 0.00 0.00 0.00 88 1011.1
20260509085059 29 0 0.0 0.0 0.00 0.00 0.00 88 1011.2
20260509084557 29 0 0.0 0.0 0.00 0.00 0.00 88 1011.1
20260509084101 29 0 0.0 0.0 0.00 0.00 0.00 88 1011.3
20260509083558 29 0 0.0 0.0 0.00 0.00 0.00 88 1011.1
20260509083102 29 0 0.0 0.0 0.00 0.00 0.00 88 1011.2
20260509082559 29 0 0.0 0.0 0.00 0.00 0.00 87 1011.2
20260509082100 29 0 0.0 0.0 0.00 0.00 0.00 87 1011.2
20260509081600 29 0 0.0 0.0 0.00 0.00 0.00 87 1011.2
20260509081100 29 0 0.0 0.0 0.00 0.00 0.00 87 1011.3
20260509080559 29 0 0.0 0.0 0.00 0.00 0.00 87 1011.1
20260509080100 29 0 0.0 0.0 0.00 0.00 0.00 87 1011.1
20260509075558 29 0 0.0 0.0 0.00 0.00 0.00 87 1011.1
20260509075059 29 0 0.0 0.0 0.00 0.00 0.00 87 1011.2
20260509074610 29 0 0.0 0.0 0.00 0.00 0.00 87 1011.3
20260509074059 29 0 0.0 0.0 0.00 0.00 0.00 86 1011.3
20260509073602 29 0 0.0 0.0 0.00 0.00 0.00 87 1011.3
20260509073059 29 0 0.0 0.0 0.00 0.00 0.00 86 1011.3
20260509072601 29 0 0.0 0.0 0.00 0.00 0.00 86 1011.4
20260509072058 29 0 0.0 0.0 0.00 0.00 0.00 86 1011.2
20260509071612 29 0 0.0 0.0 0.00 0.00 0.00 86 1011.2
20260509071059 29 0 0.0 0.0 0.00 0.00 0.00 86 1011.2
20260509070559 29 0 0.0 0.9 0.00 0.00 0.00 86 1011.3
20260509070058 29 0 0.0 0.9 0.00 0.00 0.00 86 1011.4
20260509065558 29 0 0.0 0.9 0.00 0.00 0.00 85 1011.3
20260509065058 29 0 0.0 0.9 0.00 0.00 0.00 85 1011.3
20260509064601 29 129 0.0 0.9 0.00 0.00 0.00 85 1011.4
20260509064059 29 0 0.0 1.7 0.00 0.00 0.00 85 1011.4
20260509063603 29 0 0.0 1.7 0.00 0.00 0.00 85 1011.6
20260509063059 29 129 0.0 1.7 0.00 0.00 0.00 85 1011.6
20260509062558 29 0 0.0 0.9 0.00 0.00 0.00 85 1011.6
20260509062058 29 0 0.0 0.9 0.00 0.00 0.00 85 1011.7
20260509061603 29 0 0.0 0.9 0.00 0.00 0.00 84 1011.7
20260509061059 29 0 0.0 1.7 0.00 0.00 0.00 84 1011.6
20260509060559 29 0 0.0 1.7 0.00 0.00 0.00 84 1011.7
20260509055559 29 129 0.0 1.7 0.00 0.00 0.00 84 1011.9
20260509055101 29 0 0.0 1.7 0.00 0.00 0.00 84 1011.9
20260509054609 29 0 0.0 1.7 0.00 0.00 0.00 83 1012.0
20260509054059 30 0 0.0 1.7 0.00 0.00 0.00 83 1012.0
20260509053558 30 0 0.0 1.7 0.00 0.00 0.00 83 1012.0
20260509053105 30 129 0.9 1.7 0.00 0.00 0.00 83 1012.0
20260509052559 30 129 0.9 1.7 0.00 0.00 0.00 83 1012.1
20260509052058 29 129 0.0 1.7 0.00 0.00 0.00 82 1012.0